SPACEMOBILE-006

Last updated on Fri Sep 11 2026 00:02:08 GMT+0000 (Coordinated Universal Time)

1 67232U 25309A 26253.39594899 .00001476 00000+0 85134-4 0 9995 2 67232 52.9947 301.2448 0011508 41.2332 318.9529 15.18870356 39542
UTC large
Height (km)
Speed (km/s)
/
Latitude / Longitude
Inclination (degrees)
Orbital Period (minutes)
Azimuth
Elevation
Range (km)
Doppler Factor

Next 0 passes for location: London (51.5072 / 0.1276)

No passes found over London.
SPACEMOBILE-006